GPS BIIF-6 (PRN 06)

Last updated on Sat Nov 15 2025 00:03:18 GMT+0000 (Coordinated Universal Time)

1 39741U 14026A 25318.07444445 -.00000081 00000+0 00000+0 0 9996 2 39741 56.5938 339.8918 0038257 317.4073 42.3397 2.00563410 84228
UTC large
Height (km)
Speed (km/s)
/
Latitude / Longitude
Inclination (degrees)
Orbital Period (minutes)
Azimuth
Elevation
Range (km)
Doppler Factor

Next 0 passes for location: London (51.5072 / 0.1276)

Sorry there are no passes over London.